THORAD AGENA D DEB, 5149

Orbit data source: Space-Track

THORAD AGENA D DEB, 5149 is space debris in SSO originally from a launch on Wed, 08 Apr 1970 UTC launched from the Air Force Western Test Range (AFWTR). Debris objects in space refer to the collection of defunct objects orbiting the Earth. Examples of debris include non-operational satellites, rocket bodies, and fragments generated from explosions, collisions, or faulty payload assembly.

Loading next visibility...
Identifier
5149, 1970-025JS
Orbit
SSO
Country
Flag of USUS
Related business
Manufacturer
Unknown
Mission
Spacecraft
Bus & Motor
Unknown
Mass
Unknown
Launch date (UTC)
1970-04-08 (56 years ago)
Launch vehicle
Unknown
Launch site
Air Force Western Test Range (AFWTR)
Object type
Payload
Rocket body
Debris
Shape & HBR
Unknown shape, 0.1 m
Radar Cross Section
Medium (>0.1 m² and <1 m²)

Expand to show TLE details & history
Last TLE update: 11 hours ago

TLE from 11 hours ago
0 THORAD AGENA D DEB
1 05149U 70025JS  26266.14411540  .00001368  00000-0  55019-3 0  9996
2 05149  99.6245 325.6724 0050620 213.8233 145.9713 14.29329480875619
Epoch: 2026-09-23T03:27Z
TLE epoch observation values (Epoch: 2026-09-23T03:27:31.570Z)
Latitude
-0.00008°
Longitude
-88.20859°
Altitude
827.021 km
Speed
7.424 km/s
True Right ascension
21h 42m 41s
True Declination
0° 00' 00"
Sunlit
Object was in full shadow at epoch
Visualization orbit readout
Latitude
Unknown
Longitude
Unknown
Altitude
Unknown
Speed
Unknown
Apparent Right ascension
Unknown
Apparent Declination
Unknown
Sunlit
N/A
Visualization observer readout
Local Sidereal Time
07:32:41
Azimuth
Unknown
Elevation
Unknown
Doppler factor
Unknown
Orbital elements
Apogee altitude
827.456 km
Perigee altitude
754.874 km
Semi-major axis
7,169.302 km
Eccentricity
0.00506
Inclination
99.6245°
RAAN
325.6724°
Arg. of periapsis
213.8233°
True anomaly
146.29421°
Mean anomaly
145.9713°
Eccentric anomaly
146.13293°
Mean motion
3.57543 °/min
Orbital period
100.69 mins
BSTAR
0.00055019

Documentation

Showing up to 5 results
|